Location: Recife
(8.0585°S, 34.8848°W)
Time: 08:46:38
(UTC-03:00)

Altair - Pass Details

Date: 21 April 2026
Orbit: 1501 x 1682 km, 47.2° (Epoch: 11 May)

Event Time Altitude Azimuth Distance (km) Brightness Sun altitude
Rises 20:20:29 0° 315° (NW) 4,676 10.6 -46.1°
Reaches altitude 10° 20:23:33 10° 313° (NW) 3,679 9.9 -46.9°
Enters shadow 20:28:28 36° 305° (NW) 2,211 8.5 -48.1°
